[[{"header":{"parameterUnit":"m.s-1","parameterCategory":1,"la1":30.2991,"la2":30.254,"lo1":-89.0895,"lo2":-89.0444,"dy":0.0017,"dx":0.0017,"nx":28,"ny":28,"refTime":"2023-08-20T21:00:00:Z","depth":0,"parameterNumber":2,"parameterNumberName":"U-component_of_WINDS"},"data":[0,0,0,0,0,0,0,0,0,0,0,0,0,0,0,0,0,0,0,0,0,0,0,0,0,0,0,0,0,0,0,0,0,0,0,0,0,0,0,0,0,0,0,0,0,0,0,0,0,0,0,0,0,0,0,0,0,0,-6.9939,-6.9938,0,-6.9883,-6.9882,-6.9881,-6.9746,-6.9743,-6.974,-6.9738,-6.9683,-6.9684,-6.9685,0,0,0,0,0,0,0,0,0,0,0,0,0,-6.9933,-6.9934,-6.9939,-6.9938,-6.9937,-6.9883,-6.9882,-6.9881,-6.9747,-6.9743,-6.974,-6.9736,-6.9682,-6.9684,-6.9685,0,0,0,0,0,0,0,0,0,0,0,0,0,-6.9912,-6.9934,-6.9939,-6.9863,-6.9856,-6.9883,-6.9882,-6.9881,-6.9747,-6.9743,-6.9739,-6.9735,-6.9682,-6.9684,-6.9685,-6.9781,0,0,-6.9691,-6.9691,0,0,0,0,0,0,0,0,-6.9914,-6.9913,-6.9875,-6.9869,-6.986,-6.9817,-6.9859,-6.9848,-6.9748,-6.9789,-6.9738,-6.9733,-6.9731,-6.9728,-6.9727,-6.9779,-6.9776,-6.9691,-6.9692,-6.9693,-6.9693,0,0,0,0,0,0,0,-6.9915,-6.9914,-6.9916,-6.9875,-6.9866,-6.9834,-6.9826,-6.9857,-6.9784,-6.9785,-6.9775,-6.977,-6.9726,-6.9726,-6.9725,-6.9775,-6.9691,-6.9692,-6.9693,-6.9694,-6.9904,-6.9909,0,0,0,0,0,0,-6.9927,-6.9916,-6.9918,-6.9915,-6.9877,-6.9837,-6.9829,-6.9835,-6.9784,-6.9772,-6.9774,-6.9764,-6.9725,-6.9723,-6.9723,-6.9831,-6.9693,-6.9694,-6.9695,-6.99,-6.9905,-6.991,0,0,0,0,0,0,-6.9927,-6.9928,-6.992,-6.9913,-6.9909,-6.9842,-6.985,-6.9836,-6.9836,-6.9775,-6.9762,-6.9786,-6.9722,-6.972,-6.9768,-6.9827,-6.9695,-6.9697,-6.9895,-6.9902,-6.9908,-7.005,0,0,0,0,0,0,-6.9928,-6.9929,-6.9964,-6.9915,-6.991,-6.9966,-6.9854,-6.9838,-6.9839,-6.9826,-6.9784,-6.9773,-6.9718,-6.9766,-6.977,-6.9827,-6.9698,-6.9889,-6.9898,-6.9906,-7.0039,-7.006,-7.0079,0,0,0,0,0,-6.9928,-7.0006,-6.9966,-6.9967,-6.9952,-6.9969,-6.9967,-6.9902,-6.9844,-6.9879,-6.9841,-6.9774,-6.9821,-6.9772,-6.9775,-6.9834,-6.9885,-6.9895,-6.9905,-7.003,-7.0056,-7.0078,0,0,0,0,0,0,-7.0064,-6.9998,-6.9953,-7.0017,-7.0,-6.9946,-6.9988,-6.9931,-6.993,-6.9918,-6.9838,-6.983,-6.9889,-6.9867,-6.9813,-6.9925,-6.9842,-6.9854,-6.9937,-6.9961,-6.998,-6.9983,-6.97,0,0,0,0,0,-7.0102,-7.012,-7.0062,-7.0125,-7.0119,-7.0056,-7.0061,-7.0012,-6.9991,-6.9983,-6.9948,-6.9931,-6.9942,-6.9951,-6.9957,-7.0037,-7.0026,-7.008,-7.0099,-7.0116,-7.0125,-7.0166,-7.0189,-6.9944,-6.9944,-6.9943,0,0,-7.0179,-7.0146,-7.0162,-7.0152,-7.0132,-7.0154,-7.005,-7.0077,-7.0093,-6.9988,-7.0029,-7.0005,-6.998,-7.0045,-7.0071,-7.0028,-7.0192,-7.0129,-7.0142,-7.0143,-7.0179,-7.0203,-7.0223,-6.9951,-6.9949,-6.9948,0,0,-7.0331,-7.0308,-7.0357,-7.0341,-7.0313,-7.0271,-7.0284,-7.024,-7.0218,-7.026,-7.0181,-7.02,-7.0221,-7.0207,-7.0202,-7.0354,-7.0293,-7.0359,-7.046,-7.0501,-7.052,-7.0537,-7.059,-7.061,-7.037,-7.037,-7.037,0,-7.043,-7.0459,-7.039,-7.0423,-7.0421,-7.0328,-7.0378,-7.0366,-7.0342,-7.0344,-7.0296,-7.0321,-7.0298,-7.0358,-7.0395,-7.0395,-7.0407,-7.0361,-7.0523,-7.0539,-7.0554,-7.0604,-7.0624,-7.0378,-7.0377,-7.0376,-7.0375,0,-7.0583,-7.0605,-7.0649,-7.0628,-7.0632,-7.0673,-7.0612,-7.0624,-7.0578,-7.0541,-7.0586,-7.0556,-7.0555,-7.0567,-7.0521,-7.0621,-7.0595,-7.0537,-7.0452,-7.0587,-7.0632,-7.0651,-7.039,-7.0387,-7.0384,-7.0382,0,0,-7.0814,-7.0757,-7.0774,-7.0764,-7.0729,-7.0745,-7.0785,-7.0784,-7.0796,-7.0785,-7.0815,-7.0837,-7.0783,-7.0778,-7.0731,-7.0768,-7.0889,-7.0704,-7.0703,-7.0738,-7.0997,-7.1039,-7.1063,-7.085,-7.0853,-7.0856,-7.0999,0,-7.0955,-7.1016,-7.0957,-7.103,-7.105,-7.0964,-7.0998,-7.0981,-7.095,-7.0964,-7.0929,-7.0945,-7.0874,-7.087,-7.0903,-7.0867,-7.094,-7.0857,-7.0877,-7.0879,-7.0883,-7.1086,-7.113,-7.1266,-7.1016,-7.1019,-7.1021,0,-7.1127,-7.1123,-7.1199,-7.116,-7.1166,-7.1198,-7.1193,-7.1207,-7.1188,-7.1162,-7.116,-7.1103,-7.114,-7.106,-7.111,-7.1055,-7.1061,-7.1045,-7.1049,-7.1046,-7.0956,-7.1087,-7.1308,-7.1328,-7.1049,-7.1047,-7.1045,0,-7.1286,-7.1301,-7.1348,-7.1342,-7.1299,-7.1323,-7.1307,-7.1283,-7.1287,-7.1285,-7.1286,-7.1289,-7.129,-7.1293,-7.124,-7.1186,-7.1297,-7.1212,-7.1277,-7.1278,-7.1301,-7.1299,-7.1524,-7.131,-7.1309,-7.1309,-7.1309,0,-7.1448,-7.1497,-7.1419,-7.1447,-7.1501,-7.1434,-7.1489,-7.1464,-7.1445,-7.1468,-7.1395,-7.1419,-7.1347,-7.1364,-7.1323,-7.1371,-7.1373,-7.1353,-7.1341,-7.1358,-7.1361,-7.1358,-7.1347,-7.1314,-7.1313,-7.1312,-7.1311,0,-7.1633,-7.1582,-7.1628,-7.1584,-7.1575,-7.1616,-7.1579,-7.1605,-7.1571,-7.1601,-7.1605,-7.1551,-7.1567,-7.1515,-7.1523,-7.1496,-7.1565,-7.1539,-7.1571,-7.1562,-7.163,-7.1623,-7.1858,-7.1885,-7.1657,-7.1659,-7.1661,0,-7.1738,-7.1774,-7.1735,-7.1745,-7.1732,-7.175,-7.1754,-7.1692,-7.1699,-7.1681,-7.171,-7.172,-7.1724,-7.1755,-7.1717,-7.1724,-7.1696,-7.1778,-7.1696,-7.1712,-7.1695,-7.1692,-7.1696,-7.1794,-7.1797,-7.1799,-7.1801,0,-7.1929,-7.1903,-7.1911,-7.1913,-7.192,-7.1917,-7.191,-7.1923,-7.1856,-7.1869,-7.1885,-7.1889,-7.1898,-7.1909,-7.1908,-7.1892,-7.1836,-7.1828,-7.1843,-7.1859,-7.1875,-7.1866,-7.1615,-7.1822,-7.1819,-7.1818,-7.1817,-7.1816,-7.2076,-7.2104,-7.2081,-7.2094,-7.2082,-7.2078,-7.21,-7.2069,-7.2081,-7.2083,-7.2047,-7.207,-7.2052,-7.2045,-7.2035,-7.2054,-7.2016,-7.2038,-7.2043,-7.2049,-7.206,-7.1876,-7.2054,-7.2053,-7.2053,-7.2052,-7.2051,0,-7.2262,-7.2244,-7.2256,-7.2249,-7.2259,-7.2207,-7.2197,-7.2209,-7.2231,-7.2219,-7.2226,-7.2245,-7.2257,-7.2222,-7.2228,-7.225,-7.2225,-7.2254,-7.225,-7.2247,-7.2094,-7.2079,-7.2274,-7.2274,-7.2274,-7.2274,-7.2274,-7.2274,-7.2359,-7.2404,-7.2377,-7.2416,-7.2398,-7.242,-7.2419,-7.2416,-7.2406,-7.243,-7.244,-7.2417,-7.2396,-7.2402,-7.2411,-7.24,-7.2405,-7.2443,-7.2424,-7.228,-7.2258,-7.2237,-7.2223,-7.2445,-7.2446,-7.2575,-7.2577,-7.2577]},{"header":{"parameterUnit":"m.s-1","parameterCategory":1,"la1":30.2991,"la2":30.254,"lo1":-89.0895,"lo2":-89.0444,"dy":0.0017,"dx":0.0017,"nx":28,"ny":28,"refTime":"2023-08-20T21:00:00:Z","depth":0,"parameterNumber":3,"parameterNumberName":"V-component_of_WINDS"},"data":[0,0,0,0,0,0,0,0,0,0,0,0,0,0,0,0,0,0,0,0,0,0,0,0,0,0,0,0,0,0,0,0,0,0,0,0,0,0,0,0,0,0,0,0,0,0,0,0,0,0,0,0,0,0,0,0,0,0,2.0026,2.0027,0,2.0078,2.0078,2.0079,2.0158,2.0159,2.0161,2.0162,2.0209,2.0209,2.0209,0,0,0,0,0,0,0,0,0,0,0,0,0,1.9992,1.9993,2.0026,2.0027,2.0027,2.0078,2.0078,2.0079,2.0158,2.0159,2.0161,2.0163,2.0209,2.0209,2.0209,0,0,0,0,0,0,0,0,0,0,0,0,0,2.0021,1.9993,2.0026,2.0073,2.0078,2.0077,2.0078,2.0079,2.0157,2.0159,2.0162,2.0164,2.0209,2.0209,2.0209,2.0166,0,0,2.0209,2.0209,0,0,0,0,0,0,0,0,2.002,2.0023,2.0065,2.007,2.0075,2.0114,2.0084,2.0108,2.0157,2.0127,2.0162,2.0165,2.0175,2.0178,2.0183,2.0168,2.017,2.0209,2.0209,2.0209,2.0209,0,0,0,0,0,0,0,2.0018,2.0021,2.0046,2.0066,2.0072,2.009,2.0097,2.0089,2.0138,2.013,2.0135,2.0141,2.0178,2.0183,2.0185,2.0171,2.0209,2.0209,2.0209,2.0209,2.0124,2.0122,0,0,0,0,0,0,2.0009,2.0019,2.0045,2.0048,2.0052,2.0089,2.0096,2.0099,2.0139,2.0147,2.0139,2.0144,2.0182,2.0185,2.0187,2.0139,2.0209,2.0209,2.0209,2.0126,2.0123,2.0121,0,0,0,0,0,0,2.0008,2.0011,2.0043,2.0035,2.004,2.0087,2.009,2.0099,2.0104,2.0146,2.0155,2.0135,2.0184,2.0187,2.0171,2.0142,2.0209,2.0208,2.0129,2.0125,2.0122,2.0042,0,0,0,0,0,0,2.0007,2.001,1.9994,2.0034,2.0041,2.0027,2.0088,2.0098,2.0104,2.0111,2.0144,2.0151,2.0186,2.0171,2.0171,2.0143,2.0208,2.0131,2.0127,2.0123,2.0048,2.0037,2.0027,0,0,0,0,0,2.0005,1.9968,1.9993,1.9996,2.0022,2.0025,2.0028,2.007,2.0101,2.0085,2.0113,2.015,2.0145,2.0168,2.0169,2.014,2.0133,2.0128,2.0123,2.0052,2.0039,2.0027,0,0,0,0,0,0,1.9921,1.9974,2.0002,1.9977,1.9996,2.0038,2.002,2.0054,2.0063,2.007,2.012,2.0127,2.0104,2.0121,2.0146,2.0101,2.0145,2.014,2.0091,2.0078,2.0068,2.0064,2.0208,0,0,0,0,0,1.99,1.9899,1.9945,1.9919,1.9927,1.9972,1.9974,2.0005,2.0026,2.0034,2.006,2.0078,2.008,2.008,2.0085,2.0051,2.006,2.0032,2.0022,2.0013,2.0008,1.9992,1.998,2.0105,2.0105,2.0105,0,0,1.9856,1.9885,1.9881,1.9903,1.9921,1.9918,1.9978,1.9971,1.9969,2.0032,2.0019,2.004,2.0063,2.0038,2.0028,2.0051,1.9976,2.0007,2.0,1.9999,1.9986,1.9974,1.9963,2.0101,2.0102,2.0103,0,0,1.9773,1.9795,1.9776,1.9794,1.9822,1.9853,1.9848,1.9886,1.9902,1.9891,1.9939,1.9936,1.994,1.9954,1.9962,1.9888,1.9923,1.9889,1.9834,1.9818,1.9808,1.98,1.9773,1.9763,1.9883,1.9883,1.9883,0,1.9714,1.9712,1.9761,1.9753,1.9761,1.9821,1.9802,1.9816,1.9843,1.9847,1.9873,1.988,1.99,1.988,1.9862,1.9867,1.9862,1.9884,1.9806,1.9798,1.9791,1.9766,1.9756,1.9879,1.9879,1.988,1.988,0,1.9638,1.9636,1.9617,1.9645,1.9651,1.9637,1.9683,1.9683,1.9715,1.9742,1.973,1.9756,1.9768,1.9766,1.9795,1.975,1.9764,1.9797,1.9842,1.9774,1.9751,1.9742,1.9872,1.9874,1.9875,1.9876,0,0,1.9501,1.9558,1.955,1.9564,1.9601,1.96,1.9589,1.9603,1.9602,1.9619,1.9611,1.9614,1.9646,1.9655,1.9687,1.9673,1.9613,1.9708,1.9709,1.9689,1.9565,1.9538,1.9527,1.9637,1.9635,1.9634,1.9563,0,1.9425,1.941,1.9455,1.9429,1.9428,1.9487,1.9478,1.9498,1.9524,1.9527,1.9555,1.9556,1.9599,1.9605,1.9594,1.9622,1.9588,1.9628,1.9628,1.9627,1.9619,1.9515,1.9487,1.9418,1.9554,1.9553,1.9552,0,1.9333,1.9349,1.9323,1.9363,1.9364,1.9355,1.9372,1.9374,1.9399,1.942,1.9431,1.9469,1.9461,1.9505,1.9494,1.952,1.9523,1.9537,1.9536,1.9536,1.9584,1.9511,1.9397,1.9386,1.9538,1.9539,1.954,0,1.9235,1.9249,1.9236,1.9246,1.9293,1.9285,1.9304,1.9332,1.9338,1.9352,1.9357,1.9369,1.9376,1.9384,1.9425,1.9454,1.9408,1.9456,1.9423,1.9422,1.9409,1.9409,1.9293,1.9413,1.9413,1.9414,1.9414,0,1.9144,1.9126,1.9193,1.9185,1.9166,1.9219,1.9198,1.9223,1.9248,1.9244,1.9296,1.9291,1.9346,1.9347,1.9379,1.9365,1.9367,1.9382,1.9391,1.9377,1.9375,1.9378,1.9384,1.9411,1.9412,1.9412,1.9413,0,1.9031,1.9075,1.9065,1.9111,1.9122,1.9106,1.9146,1.9139,1.917,1.9166,1.9167,1.9215,1.9219,1.9262,1.9275,1.9296,1.9269,1.9287,1.9261,1.9266,1.9231,1.9233,1.9111,1.9098,1.9228,1.9226,1.9225,0,1.8969,1.8957,1.9003,1.9006,1.9023,1.9026,1.9034,1.9085,1.909,1.912,1.9109,1.9119,1.9129,1.9134,1.9168,1.9179,1.9197,1.9154,1.9199,1.9186,1.9196,1.9196,1.9194,1.9143,1.9142,1.914,1.9139,0,1.8855,1.8879,1.8888,1.8906,1.8913,1.8929,1.8948,1.8946,1.9003,1.9006,1.9013,1.9021,1.9037,1.9045,1.9063,1.9081,1.9119,1.9126,1.9118,1.9103,1.9089,1.9096,1.9234,1.9127,1.9129,1.9129,1.913,1.9131,1.8766,1.8758,1.879,1.8799,1.8819,1.8836,1.8833,1.8865,1.8872,1.889,1.892,1.8922,1.8949,1.8977,1.8992,1.8994,1.9017,1.9006,1.9004,1.9,1.8993,1.909,1.8998,1.8998,1.8998,1.8999,1.8999,0,1.8654,1.8678,1.8686,1.8712,1.8719,1.8758,1.8781,1.8784,1.8786,1.881,1.882,1.8828,1.8837,1.8874,1.8886,1.8881,1.8899,1.8882,1.8883,1.8886,1.8972,1.8977,1.8868,1.8868,1.8868,1.8868,1.8868,1.8868,1.8597,1.8586,1.8614,1.8614,1.8638,1.8642,1.8652,1.8668,1.8687,1.8695,1.8703,1.8728,1.8757,1.8773,1.8783,1.8793,1.8795,1.8773,1.8789,1.8867,1.888,1.8892,1.8897,1.8773,1.8773,1.8703,1.8702,1.8702]}]]